• în Republica Moldova
  • Lista ţărilor
  • Pe 7 zile
  • Temperatura apei
  • Hartă satelitară
  • Meteo pe hartă
  • Widget-uri
  • user-avatar
    Intrare

    Meteo pe oră la Kaprun

    Astăzi, 24 Martie, Vineri

    Timp Temperatura Precipitaţii Vânt Presiune Umiditate
    00:00 -3°C° 0 mm 2 m/s 596 mmHg 93%
    01:00 -4°C° 0 mm 2 m/s 596 mmHg 92%
    02:00 -4°C° 0 mm 2 m/s 596 mmHg 92%
    03:00 -5°C° 0 mm 2 m/s 596 mmHg 91%
    04:00 -5°C° 0 mm 2 m/s 596 mmHg 90%
    05:00 -5°C° 0 mm 2 m/s 596 mmHg 89%
    06:00 -5°C° 0 mm 2 m/s 596 mmHg 88%
    07:00 -2°C° 0 mm 1 m/s 597 mmHg 87%
    08:00 0°C° 0 mm 1 m/s 598 mmHg 86%
    09:00 +2°C° 0 mm 1 m/s 599 mmHg 85%
    10:00 +4°C° 0 mm 1 m/s 600 mmHg 84%
    11:00 +5°C° 0 mm 1 m/s 600 mmHg 83%
    12:00 +5°C° 0 mm 1 m/s 600 mmHg 82%
    13:00 +6°C° 0 mm 1 m/s 601 mmHg 81%
    14:00 +6°C° 0 mm 1 m/s 601 mmHg 83%
    15:00 +6°C° 0 mm 1 m/s 600 mmHg 86%
    16:00 +5°C° 0 mm 1 m/s 600 mmHg 88%
    17:00 +3°C° 0 mm 1 m/s 600 mmHg 91%
    18:00 +1°C° 0 mm 1 m/s 599 mmHg 94%
    19:00 -1°C° 0 mm 1 m/s 598 mmHg 97%
    20:00 -1°C° 0 mm 1 m/s 598 mmHg 97%
    21:00 -2°C° 0 mm 1 m/s 598 mmHg 96%
    22:00 -2°C° 0 mm 1 m/s 598 mmHg 95%
    23:00 -3°C° 0 mm 1 m/s 598 mmHg 95%

    Mâine, 25 Martie, Sâmbătă

    Timp Temperatura Precipitaţii Vânt Presiune Umiditate
    00:00 -3°C° 0 mm 1 m/s 598 mmHg 95%
    01:00 -3°C° 0 mm 1 m/s 598 mmHg 95%
    02:00 -3°C° 0 mm 1 m/s 598 mmHg 95%
    03:00 -3°C° 0 mm 1 m/s 598 mmHg 95%
    04:00 -3°C° 0 mm 1 m/s 598 mmHg 95%
    05:00 -3°C° 0 mm 1 m/s 598 mmHg 95%
    06:00 -2°C° 0 mm 1 m/s 599 mmHg 94%
    07:00 -1°C° 0 mm 1 m/s 599 mmHg 94%
    08:00 +1°C° 0 mm 1 m/s 600 mmHg 91%
    09:00 +3°C° 0 mm 1 m/s 600 mmHg 88%
    10:00 +5°C° 0 mm 1 m/s 601 mmHg 85%
    11:00 +5°C° 0 mm 1 m/s 601 mmHg 84%
    12:00 +5°C° 0 mm 2 m/s 601 mmHg 83%
    13:00 +5°C° 0 mm 2 m/s 601 mmHg 82%
    14:00 +5°C° 0 mm 2 m/s 600 mmHg 84%
    15:00 +4°C° 0 mm 2 m/s 600 mmHg 85%
    16:00 +4°C° 0 mm 2 m/s 599 mmHg 87%
    17:00 +3°C° 0 mm 2 m/s 598 mmHg 91%
    18:00 +2°C° 0 mm 1 m/s 598 mmHg 94%
    19:00 +1°C° 0 mm 1 m/s 597 mmHg 97%
    20:00 0°C° 0 mm 1 m/s 597 mmHg 97%
    21:00 0°C° 0 mm 1 m/s 597 mmHg 96%
    22:00 -1°C° 0 mm 1 m/s 597 mmHg 96%
    23:00 -1°C° 0 mm 1 m/s 596 mmHg 96%

    Poimâine, 26 Martie, Duminică

    Timp Temperatura Precipitaţii Vânt Presiune Umiditate
    00:00 -2°C° 0 mm 1 m/s 596 mmHg 96%
    01:00 -2°C° 0 mm 1 m/s 595 mmHg 96%
    02:00 -3°C° 0 mm 1 m/s 595 mmHg 96%
    03:00 -3°C° 0 mm 1 m/s 594 mmHg 96%
    04:00 -4°C° 0 mm 1 m/s 594 mmHg 96%
    05:00 -4°C° 0 mm 1 m/s 594 mmHg 95%
    06:00 -3°C° 0 mm 1 m/s 594 mmHg 94%
    07:00 -4°C° 0 mm 0 m/s 594 mmHg 93%
    08:00 -1°C° 0 mm 1 m/s 595 mmHg 89%
    09:00 +1°C° 0 mm 1 m/s 596 mmHg 85%
    10:00 +3°C° 0 mm 1 m/s 597 mmHg 81%
    11:00 +2°C° 0 mm 2 m/s 597 mmHg 82%
    12:00 +2°C° 0 mm 2 m/s 597 mmHg 83%
    13:00 +3°C° 0 mm 2 m/s 597 mmHg 83%
    14:00 +2°C° 0,1 mm 2 m/s 597 mmHg 84%
    15:00 +2°C° 0,1 mm 2 m/s 597 mmHg 85%
    16:00 +1°C° 0,1 mm 2 m/s 596 mmHg 86%
    17:00 -1°C° 0,1 mm 2 m/s 596 mmHg 89%
    18:00 -2°C° 0,1 mm 2 m/s 596 mmHg 92%
    19:00 -4°C° 0,1 mm 2 m/s 596 mmHg 96%
    20:00 -2°C° 0 mm 1 m/s 596 mmHg 96%
    21:00 -3°C° 0 mm 1 m/s 596 mmHg 96%
    22:00 -3°C° 0 mm 1 m/s 597 mmHg 96%
    23:00 -3°C° 0 mm 1 m/s 597 mmHg 96%

    27 Martie, Luni

    Timp Temperatura Precipitaţii Vânt Presiune Umiditate
    00:00 -4°C° 0 mm 1 m/s 597 mmHg 96%
    01:00 -4°C° 0 mm 1 m/s 597 mmHg 96%
    02:00 -6°C° 0 mm 1 m/s 596 mmHg 96%
    03:00 -7°C° 0 mm 1 m/s 596 mmHg 95%
    04:00 -8°C° 0 mm 1 m/s 595 mmHg 95%
    05:00 -7°C° 0 mm 1 m/s 596 mmHg 92%
    06:00 -6°C° 0 mm 1 m/s 596 mmHg 88%
    07:00 -6°C° 0 mm 1 m/s 597 mmHg 85%
    08:00 -2°C° 0 mm 1 m/s 598 mmHg 78%
    09:00 +1°C° 0 mm 1 m/s 599 mmHg 71%
    10:00 +4°C° 0 mm 1 m/s 600 mmHg 63%
    11:00 +4°C° 0 mm 1 m/s 601 mmHg 61%
    12:00 +5°C° 0 mm 1 m/s 601 mmHg 59%
    13:00 +6°C° 0 mm 1 m/s 601 mmHg 57%
    14:00 +6°C° 0 mm 1 m/s 601 mmHg 60%
    15:00 +6°C° 0 mm 1 m/s 601 mmHg 64%
    16:00 +6°C° 0 mm 1 m/s 600 mmHg 67%
    17:00 +3°C° 0 mm 1 m/s 599 mmHg 74%
    18:00 -1°C° 0 mm 1 m/s 598 mmHg 82%
    19:00 -4°C° 0 mm 1 m/s 597 mmHg 90%
    20:00 -3°C° 0 mm 1 m/s 597 mmHg 89%
    21:00 -3°C° 0 mm 1 m/s 598 mmHg 89%
    22:00 -3°C° 0 mm 1 m/s 598 mmHg 89%
    23:00 -3°C° 0 mm 1 m/s 598 mmHg 88%

    28 Martie, Marţi

    Timp Temperatura Precipitaţii Vânt Presiune Umiditate
    00:00 -3°C° 0 mm 1 m/s 598 mmHg 88%
    01:00 -3°C° 0 mm 1 m/s 598 mmHg 88%
    02:00 -4°C° 0 mm 1 m/s 598 mmHg 89%
    03:00 -4°C° 0 mm 1 m/s 598 mmHg 89%
    04:00 -4°C° 0 mm 1 m/s 597 mmHg 90%
    05:00 -3°C° 0 mm 1 m/s 598 mmHg 87%
    06:00 -2°C° 0 mm 1 m/s 599 mmHg 85%
    07:00 -2°C° 0 mm 1 m/s 599 mmHg 82%
    08:00 +1°C° 0 mm 1 m/s 600 mmHg 76%
    09:00 +4°C° 0 mm 1 m/s 601 mmHg 69%
    10:00 +5°C° 0 mm 0 m/s 603 mmHg 62%
    11:00 +7°C° 0 mm 1 m/s 603 mmHg 61%
    12:00 +8°C° 0 mm 1 m/s 603 mmHg 60%
    13:00 +8°C° 0 mm 1 m/s 603 mmHg 59%
    14:00 +8°C° 0 mm 1 m/s 603 mmHg 62%
    15:00 +8°C° 0 mm 1 m/s 603 mmHg 64%
    16:00 +7°C° 0 mm 1 m/s 602 mmHg 67%
    17:00 +4°C° 0 mm 1 m/s 601 mmHg 76%
    18:00 +1°C° 0 mm 1 m/s 600 mmHg 85%
    19:00 -3°C° 0 mm 0 m/s 598 mmHg 95%
    20:00 -3°C° 0 mm 0 m/s 598 mmHg 95%
    21:00 -3°C° 0 mm 0 m/s 599 mmHg 96%
    22:00 -3°C° 0 mm 0 m/s 599 mmHg 96%
    23:00 -2°C° 0 mm 1 m/s 599 mmHg 96%

    29 Martie, Miercuri

    Timp Temperatura Precipitaţii Vânt Presiune Umiditate
    00:00 -2°C° 0 mm 1 m/s 599 mmHg 96%
    01:00 -2°C° 0 mm 1 m/s 600 mmHg 96%
    02:00 -2°C° 0 mm 1 m/s 600 mmHg 96%
    03:00 -1°C° 0 mm 1 m/s 600 mmHg 96%
    04:00 -1°C° 0 mm 1 m/s 600 mmHg 95%
    05:00 -1°C° 0 mm 1 m/s 601 mmHg 95%
    06:00 0°C° 0 mm 1 m/s 601 mmHg 94%
    07:00 +1°C° 0 mm 1 m/s 602 mmHg 94%
    08:00 +3°C° 0 mm 1 m/s 603 mmHg 86%
    09:00 +5°C° 0 mm 1 m/s 604 mmHg 78%
    10:00 +7°C° 0 mm 1 m/s 604 mmHg 70%
    11:00 +7°C° 0 mm 1 m/s 605 mmHg 66%
    12:00 +8°C° 0 mm 1 m/s 605 mmHg 63%
    13:00 +8°C° 0 mm 0 m/s 605 mmHg 59%
    14:00 +9°C° 0 mm 1 m/s 605 mmHg 61%
    15:00 +8°C° 0 mm 1 m/s 604 mmHg 64%
    16:00 +8°C° 0 mm 1 m/s 604 mmHg 66%
    17:00 +5°C° 0 mm 1 m/s 602 mmHg 75%
    18:00 +1°C° 0 mm 0 m/s 601 mmHg 85%
    19:00 -2°C° 0 mm 0 m/s 600 mmHg 94%
    20:00 -2°C° 0 mm 0 m/s 600 mmHg 94%
    21:00 -2°C° 0 mm 0 m/s 600 mmHg 94%
    22:00 -2°C° 0 mm 1 m/s 600 mmHg 95%
    23:00 -2°C° 0 mm 1 m/s 600 mmHg 94%
    Arată mai mult